Tehachapi, CA

4:14 PM PDT on April 24, 2018 (GMT -0700)
Tehachapi Municipal

Weather History for KTSP - October, 2013

Change the Weather History Date:

Sunday, October 13, 2013

  Actual Average Record
Temperature  
Mean Temperature 48 °F -  
Max Temperature 57 °F 71 °F 84 °F (2015)
Min Temperature 37 °F 42 °F 26 °F (2017)
Degree Days  
Heating Degree Days 17    
Moisture  
Dew Point 35 °F    
Average Humidity 58    
Maximum Humidity 81    
Minimum Humidity 38    
Precipitation  
Precipitation 0.00 in - - ()
Sea Level Pressure  
Sea Level Pressure 30.02 in    
Wind  
Wind Speed 11 mph (WNW)    
Max Wind Speed 21 mph    
Max Gust Speed 25 mph    
Visibility 10 miles    
Events      
Averages and records for this station are not official NWS values.
T = Trace of Precipitation, MM = Missing Value Source: NWS Daily Summary

Daily Weather History Graph

Daily Weather History Graph

Search for Another Location

Airport or City:

Astronomy

Oct. 13, 2013 Rise Set
Actual Time 6:58 AM PDT 6:20 PM PDT
Civil Twilight 6:32 AM PDT 6:46 PM PDT
Nautical Twilight 6:03 AM PDT 7:15 PM PDT
Astronomical Twilight 5:34 AM PDT 7:45 PM PDT
Moon 3:04 PM PDT (10/13) 1:25 AM PDT (10/13)
Length of Visible Light 12h 13m
Length of Day
11h 22m
Waxing Gibbous, 70% of the Moon is Illuminated
Oct 13
Waxing Gibbous
Oct 18
Full
Oct 26
Last Quarter
Nov 3
New
Nov 9
First Quarter

Hourly Weather History & Observations

Time (PDT) Temp. Windchill Dew Point Humidity Pressure Visibility Wind Dir Wind Speed Gust Speed Precip Events Conditions
12:15 AM 50.0 °F - 37.4 °F 62% 29.97 in 10.0 mi NW 11.5 mph - N/A   Clear
12:35 AM 50.0 °F - 35.6 °F 58% 29.97 in 10.0 mi West 12.7 mph - N/A   Clear
12:55 AM 51.8 °F - 33.8 °F 50% 29.97 in 10.0 mi West 17.3 mph - N/A   Clear
1:15 AM 53.6 °F - 33.8 °F 47% 29.97 in 10.0 mi WNW 12.7 mph - N/A   Clear
1:35 AM 53.6 °F - 33.8 °F 47% 29.97 in 10.0 mi NNW 13.8 mph 20.7 mph N/A   Clear
1:55 AM 50.0 °F - 35.6 °F 58% 29.96 in 10.0 mi WNW 11.5 mph - N/A   Clear
2:15 AM 48.2 °F - 35.6 °F 62% 29.96 in 10.0 mi West 8.1 mph - N/A   Clear
2:35 AM 46.4 °F 41.9 °F 35.6 °F 66% 29.96 in 10.0 mi West 9.2 mph - N/A   Clear
2:55 AM 46.4 °F 41.9 °F 33.8 °F 62% 29.96 in 10.0 mi West 9.2 mph - N/A   Clear
3:15 AM 48.2 °F - 35.6 °F 62% 29.95 in 10.0 mi West 9.2 mph - N/A   Clear
3:35 AM 46.4 °F 45.2 °F 35.6 °F 66% 29.94 in 10.0 mi NW 3.5 mph - N/A   Clear
3:55 AM 46.4 °F 42.9 °F 35.6 °F 66% 29.95 in 10.0 mi West 6.9 mph - N/A   Clear
4:15 AM 44.6 °F 40.2 °F 35.6 °F 71% 29.95 in 9.0 mi West 8.1 mph - N/A   Clear
4:35 AM 44.6 °F 40.7 °F 35.6 °F 71% 29.95 in 9.0 mi West 6.9 mph - N/A   Clear
4:55 AM 44.6 °F 40.7 °F 35.6 °F 71% 29.95 in 9.0 mi NW 6.9 mph - N/A   Clear
5:15 AM 46.4 °F 43.5 °F 35.6 °F 66% 29.95 in 10.0 mi WNW 5.8 mph - N/A   Clear
5:35 AM 46.4 °F 44.3 °F 35.6 °F 66% 29.95 in 10.0 mi WNW 4.6 mph - N/A   Clear
5:55 AM 50.0 °F - 35.6 °F 58% 29.95 in 10.0 mi NNW 5.8 mph - N/A   Clear
6:15 AM 48.2 °F - 35.6 °F 62% 29.96 in 10.0 mi North 6.9 mph - N/A   Clear
6:35 AM 46.4 °F 44.3 °F 35.6 °F 66% 29.96 in 10.0 mi NW 4.6 mph - N/A   Clear
6:55 AM 44.6 °F 40.7 °F 35.6 °F 71% 29.96 in 9.0 mi NW 6.9 mph - N/A   Clear
7:15 AM 44.6 °F 42.2 °F 35.6 °F 71% 29.97 in 8.0 mi WSW 4.6 mph - N/A   Clear
7:35 AM 46.4 °F 44.3 °F 35.6 °F 66% 29.98 in 8.0 mi West 4.6 mph - N/A   Clear
7:55 AM 48.2 °F - 35.6 °F 62% 29.99 in 8.0 mi WNW 5.8 mph - N/A   Clear
8:15 AM 50.0 °F - 35.6 °F 58% 29.99 in 10.0 mi NW 6.9 mph - N/A   Clear
8:55 AM 50.0 °F - 35.6 °F 58% 30.01 in 9.0 mi West 16.1 mph 19.6 mph N/A   Clear
9:15 AM 50.0 °F - 35.6 °F 58% 30.01 in 8.0 mi West 15.0 mph - N/A   Clear
9:35 AM 50.0 °F - 35.6 °F 58% 30.01 in 9.0 mi West 17.3 mph - N/A   Clear
9:55 AM 51.8 °F - 35.6 °F 54% 30.01 in 9.0 mi West 15.0 mph - N/A   Clear
10:15 AM 53.6 °F - 35.6 °F 51% 30.02 in 8.0 mi WNW 12.7 mph - N/A   Clear
10:35 AM 53.6 °F - 35.6 °F 51% 30.02 in 8.0 mi WNW 12.7 mph - N/A   Clear
10:55 AM 53.6 °F - 37.4 °F 54% 30.02 in 9.0 mi NW 15.0 mph 19.6 mph N/A   Clear
11:15 AM 55.4 °F - 35.6 °F 47% 30.02 in 5.0 mi NW 15.0 mph 18.4 mph N/A   Haze
11:35 AM 55.4 °F - 35.6 °F 47% 30.02 in 8.0 mi NW 17.3 mph - N/A   Clear
11:55 AM 55.4 °F - 33.8 °F 44% 30.02 in 9.0 mi NW 15.0 mph 21.9 mph N/A   Clear
12:15 PM 55.4 °F - 33.8 °F 44% 30.02 in 9.0 mi NW 16.1 mph 20.7 mph N/A   Clear
12:35 PM 57.2 °F - 32.0 °F 38% 30.02 in 9.0 mi NW 16.1 mph 21.9 mph N/A   Clear
12:55 PM 57.2 °F - 32.0 °F 38% 30.02 in 9.0 mi NW 17.3 mph 23.0 mph N/A   Clear
1:15 PM 57.2 °F - 32.0 °F 38% 30.02 in 9.0 mi NW 17.3 mph 24.2 mph N/A   Clear
1:35 PM 57.2 °F - 33.8 °F 41% 30.01 in 10.0 mi NW 20.7 mph - N/A   Clear
1:55 PM 57.2 °F - 33.8 °F 41% 30.01 in 8.0 mi NW 19.6 mph 25.3 mph N/A   Clear
2:15 PM 57.2 °F - 32.0 °F 38% 30.01 in 10.0 mi NW 18.4 mph 24.2 mph N/A   Clear
2:35 PM 57.2 °F - 33.8 °F 41% 30.01 in 9.0 mi NW 18.4 mph 24.2 mph N/A   Clear
2:55 PM 57.2 °F - 33.8 °F 41% 30.01 in 10.0 mi NW 19.6 mph 24.2 mph N/A   Clear
3:15 PM 57.2 °F - 33.8 °F 41% 30.02 in 10.0 mi NNW 19.6 mph 23.0 mph N/A   Clear
3:35 PM 57.2 °F - 35.6 °F 44% 30.02 in 10.0 mi NW 17.3 mph 21.9 mph N/A   Clear
3:55 PM 55.4 °F - 33.8 °F 44% 30.02 in 10.0 mi NW 16.1 mph 24.2 mph N/A   Clear
4:15 PM 55.4 °F - 35.6 °F 47% 30.02 in 10.0 mi NW 15.0 mph - N/A   Clear
4:35 PM 55.4 °F - 35.6 °F 47% 30.02 in 10.0 mi NW 18.4 mph 23.0 mph N/A   Clear
4:55 PM 55.4 °F - 35.6 °F 47% 30.03 in 10.0 mi NW 17.3 mph 24.2 mph N/A   Clear
5:15 PM 55.4 °F - 35.6 °F 47% 30.03 in 9.0 mi NW 13.8 mph - N/A   Clear
5:35 PM 53.6 °F - 35.6 °F 51% 30.04 in 9.0 mi NW 16.1 mph - N/A   Clear
5:55 PM 53.6 °F - 35.6 °F 51% 30.04 in 10.0 mi NW 16.1 mph 20.7 mph N/A   Clear
6:15 PM 51.8 °F - 35.6 °F 54% 30.05 in 10.0 mi NW 9.2 mph - N/A   Clear
6:35 PM 50.0 °F - 35.6 °F 58% 30.06 in 9.0 mi WNW 9.2 mph - N/A   Clear
6:55 PM 50.0 °F - 35.6 °F 58% 30.07 in 10.0 mi NW 4.6 mph - N/A   Clear
7:15 PM 48.2 °F - 35.6 °F 62% 30.07 in 10.0 mi NW 5.8 mph - N/A   Clear
7:35 PM 48.2 °F - 35.6 °F 62% 30.08 in 10.0 mi WNW 4.6 mph - N/A   Clear
7:55 PM 48.2 °F - 35.6 °F 62% 30.08 in 10.0 mi WNW 4.6 mph - N/A   Clear
8:15 PM 46.4 °F 43.5 °F 33.8 °F 62% 30.09 in 10.0 mi West 5.8 mph - N/A   Clear
8:35 PM 46.4 °F 45.2 °F 33.8 °F 62% 30.09 in 10.0 mi NNW 3.5 mph - N/A   Clear
8:55 PM 46.4 °F - 33.8 °F 62% 30.10 in 10.0 mi Calm Calm - N/A   Clear
9:15 PM 44.6 °F - 33.8 °F 66% 30.10 in 10.0 mi Calm Calm - N/A   Clear
9:35 PM 44.6 °F - 35.6 °F 71% 30.10 in 10.0 mi Calm Calm - N/A   Clear
9:55 PM 42.8 °F - 35.6 °F 76% 30.11 in 10.0 mi Calm Calm - N/A   Clear
10:15 PM 42.8 °F - 35.6 °F 76% 30.11 in 10.0 mi Calm Calm - N/A   Clear
10:35 PM 41.0 °F - 35.6 °F 81% 30.12 in 10.0 mi Calm Calm - N/A   Clear
10:55 PM 39.2 °F - 33.8 °F 81% 30.12 in 10.0 mi Calm Calm - N/A   Clear
11:15 PM 39.2 °F - 33.8 °F 81% 30.13 in 10.0 mi Calm Calm - N/A   Clear
11:35 PM 39.2 °F - 33.8 °F 81% 30.12 in 10.0 mi Calm Calm - N/A   Clear
11:55 PM 37.4 °F 34.9 °F 32.0 °F 81% 30.13 in 10.0 mi SE 3.5 mph - N/A   Clear